[Iaude] MPEC F69: 2024 FF2 [a=1.19,e=0.08,i=16.2,H=24.2]

mpec at cfa.harvard.edu mpec at cfa.harvard.edu
Fri Mar 22 06:08:09 EDT 2024


M.P.E.C. 2024-F69                                Issued 2024 March 22, 10:06 UT

     The Minor Planet Electronic Circulars contain information on unusual
         minor planets, routine data on comets and natural satellites,
         and occasional editorial announcements.  They are published
    on behalf of Division F of the International Astronomical Union by the
          Minor Planet Center, Smithsonian Astrophysical Observatory,
                          Cambridge, MA 02138, U.S.A.
			  
             Prepared using the Tamkin Foundation Computer Network

                              MPC at CFA.HARVARD.EDU
            URL https://www.minorplanetcenter.net/    ISSN 1523-6714

                                    2024 FF2                                    


Observations:
     K24F02F*HC2024 03 19.32642312 41 37.490+11 54 08.80               VEF069V00
     K24F02F HC2024 03 19.33204512 41 37.760+11 54 45.20               VEF069V00
     K24F02F HC2024 03 19.33765512 41 37.970+11 55 22.20         21.36GVEF069V00
     K24F02F HC2024 03 19.34325412 41 38.140+11 55 58.20               VEF069V00
     K24F02F KC2024 03 19.38427 12 41 39.77 +12 00 26.2          21.3 RVEF069291
     K24F02F KC2024 03 19.38992 12 41 39.97 +12 01 02.8          21.6 RVEF069291
     K24F02F KC2024 03 19.39567 12 41 40.20 +12 01 40.5          21.2 RVEF069291
     K24F02F KC2024 03 19.45641812 41 42.695+12 08 13.16         20.47GVEF069I52
     K24F02F KC2024 03 19.46028012 41 42.853+12 08 38.76         21.05GVEF069I52
     K24F02F KC2024 03 19.46414612 41 43.004+12 09 03.06         21.01GVEF069I52
     K24F02F KC2024 03 19.46801912 41 43.156+12 09 28.26         21.08GVEF069I52
     K24F02F KC2024 03 20.22643512 42 31.846+13 31 57.86         20.96GVEF069I52
     K24F02F KC2024 03 20.23152012 42 32.094+13 32 30.91         20.82GVEF069I52
     K24F02F KC2024 03 20.23659212 42 32.350+13 33 04.68         21.44GVEF069I52
     K24F02F KC2024 03 20.24165812 42 32.620+13 33 36.83         20.84GVEF069I52
     K24F02F KC2024 03 22.38741312 44 34.008+17 27 15.19         21.62GVEF069I52
     K24F02F KC2024 03 22.40178512 44 34.559+17 28 48.11         20.88GVEF069I52
     K24F02F KC2024 03 22.40894512 44 34.811+17 29 34.73         21.21GVEF069I52

Observer details:
291 LPL/Spacewatch II.  Observer M. T. Read.  Measurers M. T. Read, M. T.
    Read.  1.8-m f/2.7 reflector + CCD.
I52 Steward Observatory, Mt. Lemmon Station.  Observers R. A. Kowalski, D.
    Rankin.  Measurers T. Beuden, V. F. Carvajal, D. Fay, J. B. Fazekas, D. C.
    Fuls, A. R. Gibbs, A. D. Grauer, H. Groeller, J. K. Hogan, R. A. Kowalski,
    S. M. Larson, G. J. Leonard, D. Rankin, R. L. Seaman, F. C. Shelly, K. W.
    Wierzchos, R. A. Kowalski, D. Rankin.  1.0-m prime focus + CCD.
V00 Kitt Peak-Bok.  Observers V. F. Carvajal, H. Groeller.  Measurers M. J.
    Brucker, C. E. Woodward, T. Beuden, V. F. Carvajal, D. Fay, J. B. Fazekas,
    D. C. Fuls, A. R. Gibbs, H. Groeller, J. K. Hogan, R. A. Kowalski, S. M.
    Larson, C. Lejoly, G. J. Leonard, R. A. Mastaler, R. S. McMillan, D.
    Rankin, R. L. Seaman, F. C. Shelly, K. W. Wierzchos, V. F. Carvajal, H.
    Groeller.  2.25-m reflector + 4x4K mosaic CCD.

Orbital elements:
2024 FF2                                                 Earth MOID = 0.1573 AU
Epoch 2024 Mar. 31.0 TT = JDT 2460400.5                 MPC                     
M 310.67121              (2000.0)            P               Q                  
n   0.75457138     Peri.   74.01603     -0.39230383     +0.91912640             
a   1.1949117      Node   172.57725     -0.91401127     -0.38510762             
e   0.0829756      Incl.   16.23392     -0.10334948     -0.08305896             
P   1.31           H   24.28          G   0.15           U   8                  
Residuals in seconds of arc
240319 V00  0.6-  0.3-    240319 291  0.1-  0.9+    240320 I52  0.0   0.2-
240319 V00  0.1+  0.5-    240319 I52  0.4+  0.1+    240320 I52  0.6+  0.2+
240319 V00  0.1+  0.1-    240319 I52  0.3+  0.6+    240320 I52  1.4+  1.0-
240319 V00  0.6-  0.5-    240319 I52  0.0   0.1-    240322 I52  0.1+  0.1+
240319 291  0.1+  0.6+    240319 I52  0.3-  0.0     240322 I52  0.1+  0.2-
240319 291  0.2-  0.5+    240320 I52  0.4-  0.2+    240322 I52  0.2-  0.1+

Ephemeris:
2024 FF2                 a,e,i = 1.19, 0.08, 16                  q = 1.0958
Date    TT    R. A. (2000) Decl.     Delta      r    Elong.  Phase     V
2024 02 21    12 10 20.4 -21 47 16   0.2509  1.1836   136.6    35.0    23.1
...
2024 03 07    12 28 51.3 -07 57 47   0.1849  1.1642   156.4    20.0    21.9
...
2024 03 15    12 37 19.5 +04 15 34   0.1642  1.1542   165.5    12.4    21.4
...
2024 03 21    12 43 14.7 +14 56 29   0.1577  1.1469   161.7    15.8    21.4
2024 03 22    12 44 12.6 +16 45 20   0.1574  1.1457   160.2    17.1    21.5
2024 03 23    12 45 10.3 +18 33 45   0.1573  1.1445   158.5    18.6    21.5
...
2024 03 29    12 50 53.0 +28 55 09   0.1614  1.1376   147.4    28.2    21.8
...
2024 04 06    12 58 32.2 +40 17 26   0.1765  1.1290   133.3    40.2    22.4
...
2024 04 21    13 14 44.3 +52 50 34   0.2201  1.1150   114.7    54.9    23.2

A. U. Tomatic                (C) Copyright 2024 MPC           M.P.E.C. 2024-F69





More information about the Iaude mailing list